Peoria, IL

11:06 PM CDT on July 27, 2017 (GMT -0500)
Greater Peoria Regional

Weather History for KPIA - December, 2012

Change the Weather History Date:

Wednesday, December 5, 2012

  Actual Average Record
Temperature  
Mean Temperature 37 °F 32 °F  
Max Temperature 44 °F 40 °F 67 °F (2001)
Min Temperature 30 °F 24 °F 0 °F (2005)
Degree Days  
Heating Degree Days 28 33  
Month to date heating degree days 74 161  
Since 1 July heating degree days 1308 1309  
Cooling Degree Days 0 0  
Month to date cooling degree days 0 0  
Year to date cooling degree days 1374 1039  
Moisture  
Dew Point 26 °F    
Average Humidity 66    
Maximum Humidity 82    
Minimum Humidity 49    
Precipitation  
Precipitation 0.00 in 0.09 in 0.76 in (1976)
Month to date precipitation 0.11 0.46  
Year to date precipitation 25.21 34.53  
Snow  
Snow 0.00 in 0.20 in 4.10 in (1977)
Month to date snowfall 0.0 0.9  
Since 1 July snowfall 0.0 2.0  
Snow Depth 0.00 in    
Sea Level Pressure  
Sea Level Pressure 30.33 in    
Wind  
Wind Speed 7 mph (East)    
Max Wind Speed 13 mph    
Max Gust Speed 17 mph    
Visibility 10 miles    
Events      
T = Trace of Precipitation, MM = Missing Value Source: NWS Daily Summary

Daily Weather History Graph

Daily Weather History Graph

Search for Another Location

Airport or City:

Trip Planner

Search our weather history database for the weather conditions in past years. The results will help you decide how hot, cold, wet, or windy it might be!

Date:

Astronomy

Dec. 05, 2012 Rise Set
Actual Time 7:07 AM CST 4:31 PM CST
Civil Twilight 6:37 AM CST 5:02 PM CST
Nautical Twilight 6:02 AM CST 5:36 PM CST
Astronomical Twilight 5:29 AM CST 6:09 PM CST
Moon 11:22 PM CST (12/5) 11:29 AM CST (12/5)
Length of Visible Light 10h 24m
Length of Day
9h 23m
Waning Gibbous, 59% of the Moon is Illuminated
Dec 5
Waning Gibbous
Dec 6
Last Quarter
Dec 13
New
Dec 19
First Quarter
Dec 28
Full

Hourly Weather History & Observations

Time (CST) Temp. Windchill Dew Point Humidity Pressure Visibility Wind Dir Wind Speed Gust Speed Precip Events Conditions
12:54 AM 39.9 °F 36.7 °F 28.9 °F 65% 30.32 in 10.0 mi Variable 4.6 mph - N/A   Clear
1:54 AM 37.9 °F 32.1 °F 28.9 °F 70% 30.35 in 10.0 mi North 8.1 mph - N/A   Clear
2:54 AM 37.0 °F 31.0 °F 27.0 °F 67% 30.37 in 10.0 mi NNE 8.1 mph - N/A   Clear
3:54 AM 35.1 °F 31.0 °F 25.0 °F 67% 30.35 in 10.0 mi NNE 4.6 mph - N/A   Clear
4:54 AM 34.0 °F 28.8 °F 25.0 °F 70% 30.36 in 10.0 mi NNE 5.8 mph - N/A   Clear
5:54 AM 33.1 °F 27.7 °F 25.0 °F 72% 30.39 in 10.0 mi NE 5.8 mph - N/A   Clear
6:54 AM 30.9 °F 22.8 °F 21.9 °F 69% 30.42 in 10.0 mi ENE 9.2 mph - N/A   Clear
8:54 AM 32.0 °F 23.0 °F 21.0 °F 64% 30.45 in 10.0 mi East 11.5 mph - N/A   Clear
9:54 AM 35.1 °F 28.6 °F 23.0 °F 61% 30.45 in 10.0 mi East 8.1 mph - N/A   Clear
10:54 AM 37.9 °F 32.1 °F 23.0 °F 55% 30.43 in 10.0 mi East 8.1 mph - N/A   Clear
11:54 AM 39.9 °F 37.8 °F 23.0 °F 51% 30.40 in 10.0 mi Variable 3.5 mph - N/A   Clear
12:54 PM 42.1 °F 37.1 °F 24.1 °F 49% 30.36 in 10.0 mi East 8.1 mph - N/A   Clear
1:54 PM 43.0 °F 38.2 °F 24.1 °F 47% 30.34 in 10.0 mi East 8.1 mph - N/A   Clear
2:54 PM 43.0 °F 38.8 °F 27.0 °F 53% 30.32 in 10.0 mi East 6.9 mph - N/A   Clear
3:54 PM 42.1 °F 37.7 °F 27.0 °F 55% 30.32 in 10.0 mi ESE 6.9 mph - N/A   Clear
4:54 PM 39.9 °F 36.7 °F 28.0 °F 63% 30.31 in 10.0 mi ESE 4.6 mph - N/A   Clear
5:54 PM 39.0 °F 34.0 °F 30.0 °F 70% 30.30 in 10.0 mi East 6.9 mph - N/A   Clear
6:54 PM 37.0 °F 34.5 °F 28.9 °F 73% 30.29 in 10.0 mi East 3.5 mph - N/A   Clear
7:54 PM 37.0 °F 32.4 °F 30.0 °F 76% 30.28 in 10.0 mi East 5.8 mph - N/A   Clear
8:54 PM 36.0 °F 29.6 °F 30.0 °F 79% 30.26 in 10.0 mi ESE 8.1 mph - N/A   Clear
9:54 PM 37.0 °F 30.4 °F 30.0 °F 76% 30.23 in 10.0 mi ESE 9.2 mph - N/A   Clear
10:54 PM 36.0 °F 29.6 °F 28.9 °F 76% 30.20 in 10.0 mi SE 8.1 mph 16.1 mph N/A   Clear
11:54 PM 35.1 °F 27.9 °F 28.9 °F 78% 30.19 in 10.0 mi SSE 9.2 mph - N/A   Clear